This is the latest recevied weather packets stored in our database for station/object KC5DP. If no packets are shown the sender has not sent any weather packets the latest 10 day(s).
| Time | Temp. | Humidity | Pressure | Rain* | Wind** | Luminosity | Snow |
|---|---|---|---|---|---|---|---|
| 1777779931 | 12.78° C | 76% | 1018.8 hPa | 0 mm | - | 0 W/m² | - |
| 1777779628 | 13.33° C | 74% | 1018.8 hPa | 0 mm | - | 0 W/m² | - |
| 1777779325 | 13.33° C | 73% | 1018.6 hPa | 0 mm | - | 0 W/m² | - |
| 1777779023 | 13.89° C | 76% | 1018.8 hPa | 0 mm | - | 0 W/m² | - |
| 1777778721 | 13.89° C | 75% | 1018.7 hPa | 0 mm | - | 0 W/m² | - |
| 1777778419 | 13.89° C | 72% | 1018.6 hPa | 0 mm | - | 0 W/m² | - |
| 1777778117 | 14.44° C | 70% | 1018.6 hPa | 0 mm | - | 0 W/m² | - |
| 1777777814 | 14.44° C | 69% | 1018.6 hPa | 0 mm | - | 0 W/m² | - |
| 1777777509 | 15° C | 69% | 1018.7 hPa | 0 mm | - | 0 W/m² | - |
| 1777777207 | 15° C | 68% | 1018.5 hPa | 0 mm | - | 0 W/m² | - |
| 1777776903 | 15.56° C | 62% | 1018.4 hPa | 0 mm | - | 0 W/m² | - |
| 1777776601 | 15.56° C | 62% | 1018.3 hPa | 0 mm | - | 0 W/m² | - |
| 1777776297 | 15.56° C | 61% | 1018.4 hPa | 0 mm | - | 0 W/m² | - |
| 1777775995 | 16.11° C | 60% | 1018.2 hPa | 0 mm | - | 0 W/m² | - |
| 1777775691 | 16.11° C | 59% | 1018.3 hPa | 0 mm | - | 0 W/m² | - |
| 1777775388 | 16.11° C | 59% | 1018 hPa | 0 mm | - | 0 W/m² | - |
| 1777775083 | 16.67° C | 59% | 1018 hPa | 0 mm | - | 0 W/m² | - |
| 1777774476 | 16.67° C | 57% | 1017.8 hPa | 0 mm | - | 0 W/m² | - |
| 1777774174 | 16.67° C | 57% | 1017.7 hPa | 0 mm | - | 0 W/m² | - |
| 1777773264 | 17.22° C | 57% | 1017.8 hPa | 0 mm | - | 0 W/m² | - |
| 1777772960 | 17.22° C | 57% | 1017.5 hPa | 0 mm | - | 0 W/m² | - |
| 1777770537 | 17.78° C | 56% | 1017.2 hPa | 0 mm | - | 0 W/m² | - |
| 1777768416 | 19.44° C | 50% | 1016.7 hPa | 0 mm | - | 6 W/m² | - |
| 1777767810 | 20° C | 47% | 1016.5 hPa | 0 mm | - | 10 W/m² | - |
| 1777767506 | 20° C | 46% | 1016.5 hPa | 0 mm | - | 13 W/m² | - |
* Rain latest hour (hover to see other rain measurements)
** Current wind speed in m/s (hover to see current wind gust speed)